Location: Caltech
(34.1382°N, 118.1253°W)
Time: 02:52:24
(UTC-07:00)

JAS-1B - Visible Passes

Search period start: 23 June 2018 00:00
Search period end: 03 July 2018 00:00
Orbit: 912 x 1743 km, 99.1° (Epoch: 22 June)

Date Brightness Start Highest point End Pass type
(mag) Time Alt. Az. Time Alt. Az. Time Alt. Az.
23 Jun 9.8 00:36:44 10° WSW 00:40:02 13° W 00:43:32 10° WNW visible
23 Jun 8.9 21:10:57 13° ESE 21:17:21 32° ENE 21:25:20 10° N visible
23 Jun 8.3 23:03:12 34° SSW 23:07:06 59° W 23:16:30 10° NNW visible
24 Jun 8.6 21:30:12 18° SE 21:36:05 42° ENE 21:44:50 10° N visible
24 Jun 8.7 23:22:27 29° SW 23:26:19 44° W 23:35:18 10° NNW visible
25 Jun 8.3 21:49:28 24° SE 21:54:52 54° ENE 22:04:12 10° N visible
25 Jun 9.1 23:41:43 24° SW 23:45:36 33° W 23:53:55 10° NNW visible
26 Jun 8.0 22:08:43 29° SSE 22:13:46 71° ENE 22:23:26 10° N visible
27 Jun 9.4 00:00:59 18° SW 00:04:59 24° W 00:12:14 10° NW visible
27 Jun 9.4 20:37:36 10° E 20:43:45 21° ENE 20:50:16 10° NNE visible
27 Jun 8.0 22:28:00 33° SSE 22:32:44 90° WSW 22:42:35 10° NNW visible
28 Jun 9.7 00:20:15 12° WSW 00:24:26 17° W 00:30:05 10° NW visible
28 Jun 9.1 20:55:12 10° ESE 21:02:21 28° ENE 21:10:03 10° N visible
28 Jun 8.2 22:47:16 33° S 22:51:49 70° WSW 23:01:36 10° NNW visible
29 Jun 10.0 00:41:25 10° W 00:43:56 11° W 00:46:32 10° WNW visible
29 Jun 8.8 21:14:18 14° ESE 21:21:03 36° ENE 21:29:36 10° N visible
29 Jun 8.5 23:06:33 31° SSW 23:10:58 54° W 23:20:30 10° NNW visible
30 Jun 8.5 21:33:35 19° SE 21:39:49 47° ENE 21:49:02 10° N visible
30 Jun 8.9 23:25:50 26° SW 23:30:12 40° W 23:39:14 10° NNW visible
01 Jul 8.2 21:52:53 25° SE 21:58:40 62° ENE 22:08:20 10° N visible
01 Jul 9.3 23:45:07 21° SW 23:49:31 30° W 23:57:45 10° NW visible
02 Jul 8.1 22:12:10 29° SSE 22:17:36 79° ENE 22:27:32 10° N visible
